{"data":{"norad_id":55061,"epoch":"2026-05-25T02:32:59.555040Z","epoch_age_seconds":56006,"freshness":"FRESH","line1":"1 55061U 23001BE  26145.10624485  .00002745  00000+0  11332-3 0  9991","line2":"2 55061  97.3207 199.2739 0009366 220.7392 139.3147 15.24827167187968","mean_motion":15.24827167,"eccentricity":0.0009366,"inclination_deg":97.3207,"raan_deg":199.2739,"arg_perigee_deg":220.7392,"mean_anomaly_deg":139.3147,"bstar":0.00011332,"rev_number":18796,"period_min":94.436932339887,"perigee_km":484.8705481506,"apogee_km":497.73838590664,"semimajor_km":6869.4414670286,"source":"CELESTRAK","updated_at":"2026-05-25T13:37:58.814021Z"}}